Weather History for 68828 - December, 2013

Change the Weather History Date:

Monday, December 9, 2013

  Actual Average Record
Temperature  
Mean Temperature 64 °F -  
Max Temperature 68 °F 73 °F - ()
Min Temperature 60 °F 57 °F - ()
Degree Days  
Heating Degree Days 1    
Growing Degree Days 14 (Base 50)    
Moisture  
Dew Point 59 °F    
Average Humidity 86    
Maximum Humidity 94    
Minimum Humidity 71    
Precipitation  
Precipitation 0.00 in - - ()
Sea Level Pressure  
Sea Level Pressure 30.01 in    
Wind  
Wind Speed 6 mph ()    
Max Wind Speed 18 mph    
Max Gust Speed -    
Visibility 6.3 miles    
Events Rain    
T = Trace of Precipitation, MM = Missing Value Source: Averaged Metar Reports

Daily Weather History Graph

Daily Weather History Graph

Search for Another Location

Airport or City:

Trip Planner

Search our weather history database for the weather conditions in past years. The results will help you decide how hot, cold, wet, or windy it might be!

Date:

Astronomy

Dec. 09, 2013 Rise Set
Actual Time 5:12 AM SAST 7:33 PM SAST
Civil Twilight 4:43 AM SAST 8:02 PM SAST
Nautical Twilight 4:07 AM SAST 8:38 PM SAST
Astronomical Twilight 3:28 AM SAST 9:17 PM SAST
Moon 12:09 PM SAST (12/9) 12:02 AM SAST (12/9)
Length of Visible Light 15h 19m
Length of Day
14h 21m
Waxing Crescent, 47% of the Moon is Illuminated
Dec 9
Waxing Crescent
Dec 9
First Quarter
Dec 17
Full
Dec 25
Last Quarter
Jan 1
New

Hourly Weather History & Observations

Time (SAST) Temp. Dew Point Humidity Pressure Visibility Wind Dir Wind Speed Gust Speed Precip Events Conditions
12:00 AM 60.8 °F 57.2 °F 88% 30.04 in 5.6 mi East 3.5 mph - N/A   Mostly Cloudy
1:00 AM 60.8 °F 57.2 °F 88% 30.04 in 5.6 mi East 4.6 mph - N/A   Overcast
2:00 AM 60 °F 58 °F 90% 30.02 in 3 mi SSE 3.5 mph - -  
2:00 AM 60.8 °F 57.2 °F 88% 30.01 in 3.1 mi SSE 3.5 mph - N/A   Mostly Cloudy
3:00 AM 60.8 °F 57.2 °F 88% 30.01 in 5.6 mi Calm Calm - N/A   Overcast
4:00 AM 60.8 °F 57.2 °F 88% 30.01 in 6.2 mi Variable 2.3 mph - N/A   Overcast
5:00 AM 60 °F 57 °F 88% 30.01 in 12 mi WSW 3.5 mph - -   Mostly Cloudy
5:00 AM 60.8 °F 59.0 °F 94% 30.01 in 6.2 mi WSW 3.5 mph - N/A   Mostly Cloudy
6:00 AM 60.8 °F 59.0 °F 94% 30.01 in 5.6 mi Variable 2.3 mph - N/A   Mostly Cloudy
7:00 AM 60.8 °F 59.0 °F 94% 30.04 in 3.1 mi Variable 2.3 mph - N/A   Mostly Cloudy
8:00 AM 62 °F 59 °F 86% 30.05 in 12 mi 2.3 mph - -   Overcast
8:00 AM 62.6 °F 59.0 °F 88% 30.04 in 6.2 mi Variable 2.3 mph - N/A   Mostly Cloudy
9:00 AM 66.2 °F 59.0 °F 78% 30.04 in 6.2 mi ESE 6.9 mph - N/A   Mostly Cloudy
10:00 AM 68.0 °F 59.0 °F 73% 30.04 in 6.2 mi ESE 10.4 mph - N/A   Mostly Cloudy
11:00 AM 68 °F 61 °F 71% 30.03 in 12 mi ESE 11.5 mph - -   Mostly Cloudy
11:00 AM 68.0 °F 59.0 °F 73% 30.01 in 6.2 mi ESE 11.5 mph - N/A   Mostly Cloudy
12:00 PM 68.0 °F 60.8 °F 78% 30.01 in 6.2 mi ESE 15.0 mph - N/A   Mostly Cloudy
1:00 PM 66.2 °F 60.8 °F 83% 30.01 in 5.6 mi ESE 18.4 mph - N/A   Light Drizzle
2:00 PM 65 °F 60 °F 79% 30.01 in 6 mi ESE 16.1 mph - - Rain Light Drizzle
2:00 PM 64.4 °F 60.8 °F 88% 30.01 in 6.2 mi ESE 13.8 mph - N/A   Light Drizzle
3:00 PM 64.4 °F 60.8 °F 88% 29.98 in 6.2 mi ESE 17.3 mph - N/A   Mostly Cloudy
4:00 PM 64.4 °F 60.8 °F 88% 29.98 in 6.2 mi ESE 17.3 mph - N/A   Mostly Cloudy
5:00 PM 64 °F 59 °F 80% 30.00 in 12 mi ESE 16.1 mph - -   Mostly Cloudy
5:00 PM 64.4 °F 59.0 °F 83% 29.98 in 6.2 mi ESE 15.0 mph - N/A   Mostly Cloudy
6:00 PM 64.4 °F 59.0 °F 83% 29.98 in 6.2 mi ESE 10.4 mph - N/A   Mostly Cloudy
7:00 PM 62.6 °F 59.0 °F 88% 29.98 in - ESE 10.4 mph - N/A   Light Drizzle
8:00 PM 63 °F 60 °F 89% 30.01 in 3 mi ESE 12.7 mph - - Rain Light Drizzle
8:00 PM 62.6 °F 60.8 °F 94% 30.01 in - ESE 12.7 mph - N/A   Light Drizzle
9:00 PM 62.6 °F 59.0 °F 88% 30.01 in 5.0 mi ESE 10.4 mph - N/A   Overcast
10:00 PM 62.6 °F 60.8 °F 94% 30.01 in 4.3 mi East 8.1 mph - N/A   Overcast
11:00 PM 62.6 °F 59.0 °F 88% 30.01 in 3.7 mi East 8.1 mph - N/A   Overcast